Orbital Elements at Epoch 2459200.5 (2020-Dec-17.0) TDB
Reference: JPL 22 (heliocentric ecliptic J2000)
Element | Value | Uncertainty (1-sigma) | Units |
e | .1832022428288972 | 5.3309e-08 | |
a | 3.205565431467538 | 2.2548e-08 | au |
q | 2.618298654887903 | 1.7038e-07 | au |
i | 17.29356184388296 | 5.0273e-06 | deg |
node | 121.1126335540739 | 1.9874e-05 | deg |
peri | 272.5741321566348 | 2.4223e-05 | deg |
M | 179.7059625295773 | 1.5733e-05 | deg |
tp | 2458154.057469963550 (2018-Feb-04.55746996) | 8.6816e-05 | TDB |
period | 2096.309468591609 5.74 | 2.2118e-05 6.056e-08 | d yr |
n | .1717303696776523 | 1.8119e-09 | deg/d |
Q | 3.792832208047173 | 2.6678e-08 | au |
|
| | Orbit Determination Parameters
Additional Information
|